Weather History for Jefferson City, MO

Change the Weather History Date:

Friday, November 16, 2012

  Actual Average Record
Temperature  
Mean Temperature 46 °F -  
Max Temperature 62 °F 56 °F 83 °F (1952)
Min Temperature 30 °F 32 °F 4 °F (1940)
Degree Days  
Heating Degree Days 19    
Moisture  
Dew Point 31 °F    
Average Humidity 66    
Maximum Humidity 89    
Minimum Humidity 31    
Precipitation  
Precipitation 0.00 in - - ()
Sea Level Pressure  
Sea Level Pressure 30.40 in    
Wind  
Wind Speed 0 mph (East)    
Max Wind Speed 7 mph    
Max Gust Speed -    
Visibility 10 miles    
Events Rain    
Averages and records for this station are not official NWS values.
T = Trace of Precipitation, MM = Missing Value Source: NWS Daily Summary

Daily Weather History Graph

Daily Weather History Graph

Search for Another Location

Airport:

Trip Planner

Search our weather history database for the weather conditions in past years. The results will help you decide how hot, cold, wet, or windy it might be!

Date:

Astronomy

Nov. 16, 2012 Rise Set
Actual Time 6:52 AM CST 4:54 PM CST
Civil Twilight 6:23 AM CST 5:22 PM CST
Nautical Twilight 5:51 AM CST 5:54 PM CST
Astronomical Twilight 5:20 AM CST 6:26 PM CST
Moon 9:46 AM CST (11/16) 7:54 PM CST (11/16)
Length of Visible Light 10h 59m
Length of Day
10h 02m
Waxing Crescent, 12% of the Moon is Illuminated
Nov 16
Waxing Crescent
Nov 20
First Quarter
Nov 28
Full
Dec 6
Last Quarter
Dec 13
New

Hourly Weather History & Observations

Time (CST) Temp. Windchill Dew Point Humidity Pressure Visibility Wind Dir Wind Speed Gust Speed Precip Events Conditions
12:53 AM 39.0 °F - 32.0 °F 76% 30.37 in 10.0 mi Calm Calm - N/A   Clear
1:53 AM 37.0 °F - 30.9 °F 79% 30.38 in 10.0 mi Calm Calm - N/A   Clear
2:53 AM 34.0 °F - 28.9 °F 82% 30.38 in 10.0 mi Calm Calm - N/A   Clear
3:53 AM 33.1 °F - 28.9 °F 85% 30.38 in 9.0 mi Calm Calm - N/A   Clear
4:53 AM 33.1 °F - 28.0 °F 82% 30.38 in 9.0 mi Calm Calm - N/A   Clear
5:53 AM 30.9 °F - 28.0 °F 89% 30.40 in 8.0 mi Calm Calm - N/A   Clear
6:53 AM 30.9 °F - 28.0 °F 89% 30.42 in 8.0 mi Calm Calm - N/A   Clear
7:53 AM 33.1 °F - 28.9 °F 85% 30.43 in 6.0 mi Calm Calm - N/A   Clear
8:53 AM 37.9 °F - 34.0 °F 86% 30.43 in 9.0 mi Calm Calm - 0.00 in   Clear
9:53 AM 44.1 °F - 35.1 °F 71% 30.44 in 10.0 mi Calm Calm - 0.00 in Rain Light Rain
10:53 AM 52.0 °F - 35.1 °F 53% 30.44 in 10.0 mi Calm Calm - 0.00 in Rain Light Rain
11:53 AM 57.0 °F - 34.0 °F 42% 30.41 in 10.0 mi Calm Calm - 0.00 in   Clear
12:53 PM 59.0 °F - 33.1 °F 38% 30.40 in 10.0 mi Calm Calm - 0.00 in Rain Light Rain
1:53 PM 60.1 °F - 30.9 °F 33% 30.38 in 10.0 mi Calm Calm - 0.00 in   Clear
2:53 PM 62.1 °F - 30.9 °F 31% 30.37 in 10.0 mi NNE 3.5 mph - N/A   Clear
3:53 PM 61.0 °F - 30.9 °F 32% 30.38 in 10.0 mi Calm Calm - N/A   Clear
4:53 PM 57.0 °F - 30.0 °F 36% 30.37 in 10.0 mi East 3.5 mph - N/A   Clear
5:53 PM 48.9 °F - 33.1 °F 54% 30.38 in 10.0 mi Calm Calm - N/A   Clear
6:53 PM 45.0 °F - 33.1 °F 63% 30.39 in 10.0 mi Calm Calm - N/A   Clear
7:53 PM 41.0 °F - 33.1 °F 73% 30.40 in 10.0 mi Calm Calm - N/A   Clear
8:53 PM 39.9 °F - 32.0 °F 73% 30.40 in 10.0 mi Calm Calm - N/A   Clear
9:53 PM 37.9 °F - 32.0 °F 79% 30.41 in 10.0 mi Calm Calm - N/A   Clear
10:53 PM 36.0 °F 30.3 °F 30.0 °F 79% 30.40 in 10.0 mi ESE 6.9 mph - N/A   Clear
11:53 PM 36.0 °F - 30.9 °F 82% 30.41 in 10.0 mi Calm Calm - N/A   Clear